Year,Month,Day,Hour,Minute,Value (Times are PST for temperature in C)
2012,07,05,00,00,11.70
2012,07,05,00,01,11.60
2012,07,05,00,02,11.60
2012,07,05,00,03,11.60
2012,07,05,00,04,11.60
2012,07,05,00,05,11.60
2012,07,05,00,06,11.50
2012,07,05,00,07,11.50
2012,07,05,00,08,11.40
2012,07,05,00,09,11.40
2012,07,05,00,10,11.40
2012,07,05,00,11,11.40
2012,07,05,00,12,11.30
2012,07,05,00,13,11.30
2012,07,05,00,14,11.30
2012,07,05,00,15,11.30
2012,07,05,00,16,11.30
2012,07,05,00,17,11.30
2012,07,05,00,18,11.20
2012,07,05,00,19,11.20
2012,07,05,00,20,11.20
2012,07,05,00,21,11.20
2012,07,05,00,22,11.20
2012,07,05,00,23,11.10
2012,07,05,00,24,11.10
2012,07,05,00,25,11.10
2012,07,05,00,26,11.10
2012,07,05,00,27,11.00
2012,07,05,00,28,11.00
2012,07,05,00,29,11.00
2012,07,05,00,30,11.00
2012,07,05,00,31,10.90
2012,07,05,00,32,10.90
2012,07,05,00,33,10.90
2012,07,05,00,34,10.90
2012,07,05,00,35,10.90
2012,07,05,00,36,10.80
2012,07,05,00,37,10.80
2012,07,05,00,38,10.80
2012,07,05,00,39,10.80
2012,07,05,00,40,10.80
2012,07,05,00,41,10.70
2012,07,05,00,42,10.70
2012,07,05,00,43,10.70
2012,07,05,00,44,10.70
2012,07,05,00,45,10.70
2012,07,05,00,46,10.70
2012,07,05,00,47,10.70
2012,07,05,00,48,10.70
2012,07,05,00,49,10.70
2012,07,05,00,50,10.70
2012,07,05,00,51,10.70
2012,07,05,00,52,10.70
2012,07,05,00,53,10.60
2012,07,05,00,54,10.60
2012,07,05,00,55,10.60
2012,07,05,00,56,10.60
2012,07,05,00,57,10.60
2012,07,05,00,58,10.60
2012,07,05,00,59,10.60
2012,07,05,01,00,10.60
2012,07,05,01,01,10.60
2012,07,05,01,02,10.60
2012,07,05,01,03,10.60
2012,07,05,01,04,10.60
2012,07,05,01,05,10.60
2012,07,05,01,06,10.60
2012,07,05,01,07,10.60
2012,07,05,01,08,10.60
2012,07,05,01,09,10.60
2012,07,05,01,10,10.60
2012,07,05,01,11,10.60
2012,07,05,01,12,10.60
2012,07,05,01,13,10.60
2012,07,05,01,14,10.60
2012,07,05,01,15,10.60
2012,07,05,01,16,10.50
2012,07,05,01,17,10.50
2012,07,05,01,18,10.50
2012,07,05,01,19,10.50
2012,07,05,01,20,10.40
2012,07,05,01,21,10.40
2012,07,05,01,22,10.40
2012,07,05,01,23,10.40
2012,07,05,01,24,10.40
2012,07,05,01,25,10.40
2012,07,05,01,26,10.40
2012,07,05,01,27,10.40
2012,07,05,01,28,10.40
2012,07,05,01,29,10.40
2012,07,05,01,30,10.40
2012,07,05,01,31,10.40
2012,07,05,01,32,10.40
2012,07,05,01,33,10.40
2012,07,05,01,34,10.40
2012,07,05,01,35,10.30
2012,07,05,01,36,10.30
2012,07,05,01,37,10.30
2012,07,05,01,38,10.30
2012,07,05,01,39,10.30
2012,07,05,01,40,10.30
2012,07,05,01,41,10.30
2012,07,05,01,42,10.20
2012,07,05,01,43,10.20
2012,07,05,01,44,10.20
2012,07,05,01,45,10.20
2012,07,05,01,46,10.20
2012,07,05,01,47,10.20
2012,07,05,01,48,10.20
2012,07,05,01,49,10.20
2012,07,05,01,50,10.20
2012,07,05,01,51,10.10
2012,07,05,01,52,10.10
2012,07,05,01,53,10.10
2012,07,05,01,54,10.10
2012,07,05,01,55,10.10
2012,07,05,01,56,10.10
2012,07,05,01,57,10.10
2012,07,05,01,58,10.10
2012,07,05,01,59,10.10
2012,07,05,02,00,10.10
2012,07,05,02,01,10.00
2012,07,05,02,02,10.00
2012,07,05,02,03,10.10
2012,07,05,02,04,10.10
2012,07,05,02,05,10.10
2012,07,05,02,06,10.00
2012,07,05,02,07,10.00
2012,07,05,02,08,10.00
2012,07,05,02,09,10.00
2012,07,05,02,10,10.00
2012,07,05,02,11,10.00
2012,07,05,02,12,10.00
2012,07,05,02,13,10.00
2012,07,05,02,14,10.00
2012,07,05,02,15,10.00
2012,07,05,02,16,10.10
2012,07,05,02,17,10.00
2012,07,05,02,18,10.00
2012,07,05,02,19,10.00
2012,07,05,02,20,10.00
2012,07,05,02,21,10.00
2012,07,05,02,22,10.00
2012,07,05,02,23,10.00
2012,07,05,02,24,9.90
2012,07,05,02,25,9.90
2012,07,05,02,26,9.90
2012,07,05,02,27,9.90
2012,07,05,02,28,9.90
2012,07,05,02,29,9.80
2012,07,05,02,30,9.80
2012,07,05,02,31,9.80
2012,07,05,02,32,9.80
2012,07,05,02,33,9.80
2012,07,05,02,34,9.80
2012,07,05,02,35,9.80
2012,07,05,02,36,9.80
2012,07,05,02,37,9.80
2012,07,05,02,38,9.80
2012,07,05,02,39,9.80
2012,07,05,02,40,9.70
2012,07,05,02,41,9.70
2012,07,05,02,42,9.70
2012,07,05,02,43,9.70
2012,07,05,02,44,9.70
2012,07,05,02,45,9.70
2012,07,05,02,46,9.70
2012,07,05,02,47,9.70
2012,07,05,02,48,9.70
2012,07,05,02,49,9.70
2012,07,05,02,50,9.70
2012,07,05,02,51,9.70
2012,07,05,02,52,9.70
2012,07,05,02,53,9.70
2012,07,05,02,54,9.70
2012,07,05,02,55,9.60
2012,07,05,02,56,9.60
2012,07,05,02,57,9.60
2012,07,05,02,58,9.60
2012,07,05,02,59,9.60
2012,07,05,03,00,9.60
2012,07,05,03,01,9.60
2012,07,05,03,02,9.60
2012,07,05,03,03,9.60
2012,07,05,03,04,9.60
2012,07,05,03,05,9.60
2012,07,05,03,06,9.60
2012,07,05,03,07,9.60
2012,07,05,03,08,9.60
2012,07,05,03,09,9.60
2012,07,05,03,10,9.60
2012,07,05,03,11,9.60
2012,07,05,03,12,9.60
2012,07,05,03,13,9.60
2012,07,05,03,14,9.60
2012,07,05,03,15,9.70
2012,07,05,03,16,9.60
2012,07,05,03,17,9.70
2012,07,05,03,18,9.70
2012,07,05,03,19,9.70
2012,07,05,03,20,9.70
2012,07,05,03,21,9.70
2012,07,05,03,22,9.70
2012,07,05,03,23,9.70
2012,07,05,03,24,9.70
2012,07,05,03,25,9.60
2012,07,05,03,26,9.60
2012,07,05,03,27,9.60
2012,07,05,03,28,9.60
2012,07,05,03,29,9.60
2012,07,05,03,30,9.60
2012,07,05,03,31,9.60
2012,07,05,03,32,9.60
2012,07,05,03,33,9.60
2012,07,05,03,34,9.60
2012,07,05,03,35,9.50
2012,07,05,03,36,9.50
2012,07,05,03,37,9.50
2012,07,05,03,38,9.50
2012,07,05,03,39,9.50
2012,07,05,03,40,9.40
2012,07,05,03,41,9.40
2012,07,05,03,42,9.40
2012,07,05,03,43,9.40
2012,07,05,03,44,9.40
2012,07,05,03,45,9.40
2012,07,05,03,46,9.40
2012,07,05,03,47,9.40
2012,07,05,03,48,9.40
2012,07,05,03,49,9.40
2012,07,05,03,50,9.40
2012,07,05,03,51,9.40
2012,07,05,03,52,9.30
2012,07,05,03,53,9.30
2012,07,05,03,54,9.30
2012,07,05,03,55,9.30
2012,07,05,03,56,9.30
2012,07,05,03,57,9.30
2012,07,05,03,58,9.30
2012,07,05,03,59,9.30
2012,07,05,04,00,9.30
2012,07,05,04,01,9.30
2012,07,05,04,02,9.30
2012,07,05,04,03,9.30
2012,07,05,04,04,9.30
2012,07,05,04,05,9.30
2012,07,05,04,06,9.20
2012,07,05,04,07,9.20
2012,07,05,04,08,9.20
2012,07,05,04,09,9.20
2012,07,05,04,10,9.20
2012,07,05,04,11,9.20
2012,07,05,04,12,9.20
2012,07,05,04,13,9.10
2012,07,05,04,14,9.10
2012,07,05,04,15,9.10
2012,07,05,04,16,9.10
2012,07,05,04,17,9.10
2012,07,05,04,18,9.10
2012,07,05,04,19,9.10
2012,07,05,04,20,9.10
2012,07,05,04,21,9.10
2012,07,05,04,22,9.10
2012,07,05,04,23,9.10
2012,07,05,04,24,9.10
2012,07,05,04,25,9.10
2012,07,05,04,26,9.10
2012,07,05,04,27,9.00
2012,07,05,04,28,9.00
2012,07,05,04,29,9.00
2012,07,05,04,30,9.00
2012,07,05,04,31,9.00
2012,07,05,04,32,9.00
2012,07,05,04,33,9.00
2012,07,05,04,34,9.00
2012,07,05,04,35,9.00
2012,07,05,04,36,9.00
2012,07,05,04,37,9.00
2012,07,05,04,38,8.90
2012,07,05,04,39,8.90
2012,07,05,04,40,8.90
2012,07,05,04,41,8.90
2012,07,05,04,42,8.90
2012,07,05,04,43,8.90
2012,07,05,04,44,8.90
2012,07,05,04,45,8.90
2012,07,05,04,46,8.90
2012,07,05,04,47,8.90
2012,07,05,04,48,8.90
2012,07,05,04,49,8.90
2012,07,05,04,50,8.90
2012,07,05,04,51,8.90
2012,07,05,04,52,8.90
2012,07,05,04,53,8.90
2012,07,05,04,54,8.90
2012,07,05,04,55,8.90
2012,07,05,04,56,8.80
2012,07,05,04,57,8.80
2012,07,05,04,58,8.80
2012,07,05,04,59,8.80
2012,07,05,05,00,8.80
2012,07,05,05,01,8.80
2012,07,05,05,02,8.80
2012,07,05,05,03,8.80
2012,07,05,05,04,8.80
2012,07,05,05,05,8.80
2012,07,05,05,06,8.80
2012,07,05,05,07,8.80
2012,07,05,05,08,8.80
2012,07,05,05,09,8.80
2012,07,05,05,10,8.80
2012,07,05,05,11,8.80
2012,07,05,05,12,8.80
2012,07,05,05,13,8.80
2012,07,05,05,14,8.80
2012,07,05,05,15,8.80
2012,07,05,05,16,8.80
2012,07,05,05,17,8.80
2012,07,05,05,18,8.80
2012,07,05,05,19,8.90
2012,07,05,05,20,8.90
2012,07,05,05,21,8.90
2012,07,05,05,22,8.90
2012,07,05,05,23,8.90
2012,07,05,05,24,8.90
2012,07,05,05,25,8.90
2012,07,05,05,26,8.90
2012,07,05,05,27,8.90
2012,07,05,05,28,8.90
2012,07,05,05,29,8.90
2012,07,05,05,30,8.90
2012,07,05,05,31,8.90
2012,07,05,05,32,9.00
2012,07,05,05,33,9.00
2012,07,05,05,34,9.00
2012,07,05,05,35,9.00
2012,07,05,05,36,8.90
2012,07,05,05,37,8.90
2012,07,05,05,38,8.90
2012,07,05,05,39,8.90
2012,07,05,05,40,8.90
2012,07,05,05,41,8.90
2012,07,05,05,42,8.90
2012,07,05,05,43,8.90
2012,07,05,05,44,9.00
2012,07,05,05,45,9.00
2012,07,05,05,46,9.00
2012,07,05,05,47,9.00
2012,07,05,05,48,9.00
2012,07,05,05,49,9.00
2012,07,05,05,50,9.00
2012,07,05,05,51,9.10
2012,07,05,05,52,9.10
2012,07,05,05,53,9.10
2012,07,05,05,54,9.10
2012,07,05,05,55,9.10
2012,07,05,05,56,9.10
2012,07,05,05,57,9.10
2012,07,05,05,58,9.10
2012,07,05,05,59,9.10
2012,07,05,06,00,9.10
2012,07,05,06,01,9.20
2012,07,05,06,02,9.20
2012,07,05,06,03,9.20
2012,07,05,06,04,9.20
2012,07,05,06,05,9.30
2012,07,05,06,06,9.30
2012,07,05,06,07,9.30
2012,07,05,06,08,9.40
2012,07,05,06,09,9.40
2012,07,05,06,10,9.50
2012,07,05,06,11,9.50
2012,07,05,06,12,9.60
2012,07,05,06,13,9.60
2012,07,05,06,14,9.60
2012,07,05,06,15,9.70
2012,07,05,06,16,9.70
2012,07,05,06,17,9.70
2012,07,05,06,18,9.80
2012,07,05,06,19,9.80
2012,07,05,06,20,9.80
2012,07,05,06,21,9.90
2012,07,05,06,22,9.90
2012,07,05,06,23,9.90
2012,07,05,06,24,10.00
2012,07,05,06,25,10.00
2012,07,05,06,26,10.00
2012,07,05,06,27,10.10
2012,07,05,06,28,10.10
2012,07,05,06,29,10.20
2012,07,05,06,30,10.20
2012,07,05,06,31,10.30
2012,07,05,06,32,10.30
2012,07,05,06,33,10.30
2012,07,05,06,34,10.30
2012,07,05,06,35,10.40
2012,07,05,06,36,10.40
2012,07,05,06,37,10.40
2012,07,05,06,38,10.50
2012,07,05,06,39,10.50
2012,07,05,06,40,10.60
2012,07,05,06,41,10.60
2012,07,05,06,42,10.60
2012,07,05,06,43,10.70
2012,07,05,06,44,10.70
2012,07,05,06,45,10.70
2012,07,05,06,46,10.80
2012,07,05,06,47,10.80
2012,07,05,06,48,10.90
2012,07,05,06,49,10.90
2012,07,05,06,50,11.00
2012,07,05,06,51,11.10
2012,07,05,06,52,11.10
2012,07,05,06,53,11.20
2012,07,05,06,54,11.20
2012,07,05,06,55,11.30
2012,07,05,06,56,11.30
2012,07,05,06,57,11.40
2012,07,05,06,58,11.40
2012,07,05,06,59,11.50
2012,07,05,07,00,11.60
2012,07,05,07,01,11.70
2012,07,05,07,02,11.80
2012,07,05,07,03,12.00
2012,07,05,07,04,12.10
2012,07,05,07,05,12.20
2012,07,05,07,06,12.40
2012,07,05,07,07,12.50
2012,07,05,07,08,12.60
2012,07,05,07,09,12.80
2012,07,05,07,10,12.80
2012,07,05,07,11,12.90
2012,07,05,07,12,13.00
2012,07,05,07,13,13.10
2012,07,05,07,14,13.10
2012,07,05,07,15,13.20
2012,07,05,07,16,13.20
2012,07,05,07,17,13.20
2012,07,05,07,18,13.30
2012,07,05,07,19,13.30
2012,07,05,07,20,13.40
2012,07,05,07,21,13.50
2012,07,05,07,22,13.50
2012,07,05,07,23,13.60
2012,07,05,07,24,13.70
2012,07,05,07,25,13.70
2012,07,05,07,26,13.90
2012,07,05,07,27,14.00
2012,07,05,07,28,14.10
2012,07,05,07,29,14.20
2012,07,05,07,30,14.20
2012,07,05,07,31,14.30
2012,07,05,07,32,14.30
2012,07,05,07,33,14.30
2012,07,05,07,34,14.30
2012,07,05,07,35,14.30
2012,07,05,07,36,14.30
2012,07,05,07,37,14.40
2012,07,05,07,38,14.50
2012,07,05,07,39,14.60
2012,07,05,07,40,14.60
2012,07,05,07,41,14.70
2012,07,05,07,42,14.80
2012,07,05,07,43,14.80
2012,07,05,07,44,14.80
2012,07,05,07,45,14.80
2012,07,05,07,46,14.90
2012,07,05,07,47,14.90
2012,07,05,07,48,14.90
2012,07,05,07,49,15.00
2012,07,05,07,50,15.00
2012,07,05,07,51,15.00
2012,07,05,07,52,15.00
2012,07,05,07,53,15.00
2012,07,05,07,54,15.00
2012,07,05,07,55,15.10
2012,07,05,07,56,15.10
2012,07,05,07,57,15.20
2012,07,05,07,58,15.20
2012,07,05,07,59,15.30
2012,07,05,08,00,15.30
2012,07,05,08,01,15.30
2012,07,05,08,02,15.30
2012,07,05,08,03,15.30
2012,07,05,08,04,15.30
2012,07,05,08,05,15.30
2012,07,05,08,06,15.30
2012,07,05,08,07,15.30
2012,07,05,08,08,15.30
2012,07,05,08,09,15.30
2012,07,05,08,10,15.30
2012,07,05,08,11,15.40
2012,07,05,08,12,15.40
2012,07,05,08,13,15.40
2012,07,05,08,14,15.40
2012,07,05,08,15,15.40
2012,07,05,08,16,15.50
2012,07,05,08,17,15.40
2012,07,05,08,18,15.40
2012,07,05,08,19,15.40
2012,07,05,08,20,15.40
2012,07,05,08,21,15.40
2012,07,05,08,22,15.40
2012,07,05,08,23,15.40
2012,07,05,08,24,15.40
2012,07,05,08,25,15.40
2012,07,05,08,26,15.40
2012,07,05,08,27,15.40
2012,07,05,08,28,15.40
2012,07,05,08,29,15.40
2012,07,05,08,30,15.40
2012,07,05,08,31,15.40
2012,07,05,08,32,15.40
2012,07,05,08,33,15.40
2012,07,05,08,34,15.40
2012,07,05,08,35,15.30
2012,07,05,08,36,15.30
2012,07,05,08,37,15.30
2012,07,05,08,38,15.20
2012,07,05,08,39,15.20
2012,07,05,08,40,15.20
2012,07,05,08,41,15.20
2012,07,05,08,42,15.20
2012,07,05,08,43,15.10
2012,07,05,08,44,15.10
2012,07,05,08,45,15.20
2012,07,05,08,46,15.30
2012,07,05,08,47,15.30
2012,07,05,08,48,15.40
2012,07,05,08,49,15.40
2012,07,05,08,50,15.40
2012,07,05,08,51,15.50
2012,07,05,08,52,15.60
2012,07,05,08,53,15.60
2012,07,05,08,54,15.60
2012,07,05,08,55,15.60
2012,07,05,08,56,15.60
2012,07,05,08,57,15.60
2012,07,05,08,58,15.60
2012,07,05,08,59,15.60
2012,07,05,09,00,15.60
2012,07,05,09,01,15.60
2012,07,05,09,02,15.60
2012,07,05,09,03,15.60
2012,07,05,09,04,15.60
2012,07,05,09,05,15.60
2012,07,05,09,06,15.60
2012,07,05,09,07,15.60
2012,07,05,09,08,15.70
2012,07,05,09,09,15.70
2012,07,05,09,10,15.70
2012,07,05,09,11,15.70
2012,07,05,09,12,15.60
2012,07,05,09,13,15.70
2012,07,05,09,14,15.70
2012,07,05,09,15,15.70
2012,07,05,09,16,15.80
2012,07,05,09,17,15.80
2012,07,05,09,18,15.80
2012,07,05,09,19,15.90
2012,07,05,09,20,16.00
2012,07,05,09,21,16.10
2012,07,05,09,22,16.20
2012,07,05,09,23,16.20
2012,07,05,09,24,16.30
2012,07,05,09,25,16.30
2012,07,05,09,26,16.40
2012,07,05,09,27,16.50
2012,07,05,09,28,16.60
2012,07,05,09,29,16.70
2012,07,05,09,30,16.80
2012,07,05,09,31,16.80
2012,07,05,09,32,16.80
2012,07,05,09,33,16.80
2012,07,05,09,34,16.80
2012,07,05,09,35,16.80
2012,07,05,09,36,16.80
2012,07,05,09,37,16.80
2012,07,05,09,38,16.80
2012,07,05,09,39,16.80
2012,07,05,09,40,16.90
2012,07,05,09,41,16.90
2012,07,05,09,42,16.90
2012,07,05,09,43,17.00
2012,07,05,09,44,17.10
2012,07,05,09,45,17.10
2012,07,05,09,46,17.20
2012,07,05,09,47,17.30
2012,07,05,09,48,17.30
2012,07,05,09,49,17.30
2012,07,05,09,50,17.30
2012,07,05,09,51,17.30
2012,07,05,09,52,17.30
2012,07,05,09,53,17.40
2012,07,05,09,54,17.50
2012,07,05,09,55,17.50
2012,07,05,09,56,17.40
2012,07,05,09,57,17.40
2012,07,05,09,58,17.40
2012,07,05,09,59,17.50
2012,07,05,10,00,17.50
2012,07,05,10,01,17.50
2012,07,05,10,02,17.40
2012,07,05,10,03,17.30
2012,07,05,10,04,17.30
2012,07,05,10,05,17.20
2012,07,05,10,06,17.20
2012,07,05,10,07,17.20
2012,07,05,10,08,17.20
2012,07,05,10,09,17.10
2012,07,05,10,10,17.10
2012,07,05,10,11,17.10
2012,07,05,10,12,17.00
2012,07,05,10,13,17.00
2012,07,05,10,14,17.00
2012,07,05,10,15,17.10
2012,07,05,10,16,17.20
2012,07,05,10,17,17.20
2012,07,05,10,18,17.20
2012,07,05,10,19,17.20
2012,07,05,10,20,17.20
2012,07,05,10,21,17.20
2012,07,05,10,22,17.20
2012,07,05,10,23,17.20
2012,07,05,10,24,17.20
2012,07,05,10,25,17.20
2012,07,05,10,26,17.20
2012,07,05,10,27,17.30
2012,07,05,10,28,17.30
2012,07,05,10,29,17.40
2012,07,05,10,30,17.50
2012,07,05,10,31,17.60
2012,07,05,10,32,17.70
2012,07,05,10,33,17.70
2012,07,05,10,34,17.70
2012,07,05,10,35,17.70
2012,07,05,10,36,17.70
2012,07,05,10,37,17.80
2012,07,05,10,38,17.80
2012,07,05,10,39,17.90
2012,07,05,10,40,18.00
2012,07,05,10,41,18.00
2012,07,05,10,42,18.10
2012,07,05,10,43,18.00
2012,07,05,10,44,18.10
2012,07,05,10,45,18.10
2012,07,05,10,46,18.20
2012,07,05,10,47,18.20
2012,07,05,10,48,18.20
2012,07,05,10,49,18.20
2012,07,05,10,50,18.20
2012,07,05,10,51,18.30
2012,07,05,10,52,18.40
2012,07,05,10,53,18.50
2012,07,05,10,54,18.50
2012,07,05,10,55,18.40
2012,07,05,10,56,18.30
2012,07,05,10,57,18.20
2012,07,05,10,58,18.10
2012,07,05,10,59,18.10
2012,07,05,11,00,18.00
2012,07,05,11,01,18.00
2012,07,05,11,02,18.00
2012,07,05,11,03,18.00
2012,07,05,11,04,18.00
2012,07,05,11,05,18.10
2012,07,05,11,06,18.10
2012,07,05,11,07,18.10
2012,07,05,11,08,18.20
2012,07,05,11,09,18.20
2012,07,05,11,10,18.20
2012,07,05,11,11,18.20
2012,07,05,11,12,18.20
2012,07,05,11,13,18.10
2012,07,05,11,14,18.10
2012,07,05,11,15,18.10
2012,07,05,11,16,18.10
2012,07,05,11,17,18.10
2012,07,05,11,18,18.10
2012,07,05,11,19,18.20
2012,07,05,11,20,18.20
2012,07,05,11,21,18.20
2012,07,05,11,22,18.30
2012,07,05,11,23,18.20
2012,07,05,11,24,18.20
2012,07,05,11,25,18.20
2012,07,05,11,26,18.20
2012,07,05,11,27,18.30
2012,07,05,11,28,18.30
2012,07,05,11,29,18.30
2012,07,05,11,30,18.30
2012,07,05,11,31,18.30
2012,07,05,11,32,18.40
2012,07,05,11,33,18.40
2012,07,05,11,34,18.40
2012,07,05,11,35,18.40
2012,07,05,11,36,18.50
2012,07,05,11,37,18.50
2012,07,05,11,38,18.60
2012,07,05,11,39,18.60
2012,07,05,11,40,18.50
2012,07,05,11,41,18.60
2012,07,05,11,42,18.60
2012,07,05,11,43,18.70
2012,07,05,11,44,18.70
2012,07,05,11,45,18.70
2012,07,05,11,46,18.70
2012,07,05,11,47,18.70
2012,07,05,11,48,18.80
2012,07,05,11,49,18.80
2012,07,05,11,50,18.80
2012,07,05,11,51,19.00
2012,07,05,11,52,19.10
2012,07,05,11,53,19.20
2012,07,05,11,54,19.20
2012,07,05,11,55,19.10
2012,07,05,11,56,19.10
2012,07,05,11,57,19.10
2012,07,05,11,58,19.20
2012,07,05,11,59,19.20
2012,07,05,12,00,19.20
2012,07,05,12,01,19.20
2012,07,05,12,02,19.20
2012,07,05,12,03,19.20
2012,07,05,12,04,19.30
2012,07,05,12,05,19.30
2012,07,05,12,06,19.40
2012,07,05,12,07,19.40
2012,07,05,12,08,19.40
2012,07,05,12,09,19.50
2012,07,05,12,10,19.60
2012,07,05,12,11,19.50
2012,07,05,12,12,19.50
2012,07,05,12,13,19.40
2012,07,05,12,14,19.40
2012,07,05,12,15,19.40
2012,07,05,12,16,19.40
2012,07,05,12,17,19.50
2012,07,05,12,18,19.60
2012,07,05,12,19,19.70
2012,07,05,12,20,19.70
2012,07,05,12,21,19.80
2012,07,05,12,22,19.80
2012,07,05,12,23,19.70
2012,07,05,12,24,19.70
2012,07,05,12,25,19.70
2012,07,05,12,26,19.60
2012,07,05,12,27,19.60
2012,07,05,12,28,19.60
2012,07,05,12,29,19.60
2012,07,05,12,30,19.70
2012,07,05,12,31,19.70
2012,07,05,12,32,19.80
2012,07,05,12,33,19.70
2012,07,05,12,34,19.80
2012,07,05,12,35,19.90
2012,07,05,12,36,20.00
2012,07,05,12,37,20.00
2012,07,05,12,38,20.00
2012,07,05,12,39,19.90
2012,07,05,12,40,19.90
2012,07,05,12,41,19.80
2012,07,05,12,42,19.80
2012,07,05,12,43,19.80
2012,07,05,12,44,19.90
2012,07,05,12,45,19.90
2012,07,05,12,46,19.90
2012,07,05,12,47,19.90
2012,07,05,12,48,19.90
2012,07,05,12,49,19.90
2012,07,05,12,50,19.80
2012,07,05,12,51,19.70
2012,07,05,12,52,19.70
2012,07,05,12,53,19.60
2012,07,05,12,54,19.50
2012,07,05,12,55,19.50
2012,07,05,12,56,19.60
2012,07,05,12,57,19.70
2012,07,05,12,58,19.70
2012,07,05,12,59,19.80
2012,07,05,13,00,19.90
2012,07,05,13,01,20.00
2012,07,05,13,02,20.10
2012,07,05,13,03,20.10
2012,07,05,13,04,20.10
2012,07,05,13,05,20.00
2012,07,05,13,06,20.00
2012,07,05,13,07,19.90
2012,07,05,13,08,20.00
2012,07,05,13,09,20.10
2012,07,05,13,10,20.10
2012,07,05,13,11,20.10
2012,07,05,13,12,20.20
2012,07,05,13,13,20.20
2012,07,05,13,14,20.30
2012,07,05,13,15,20.30
2012,07,05,13,16,20.30
2012,07,05,13,17,20.30
2012,07,05,13,18,20.30
2012,07,05,13,19,20.30
2012,07,05,13,20,20.30
2012,07,05,13,21,20.40
2012,07,05,13,22,20.40
2012,07,05,13,23,20.40
2012,07,05,13,24,20.40
2012,07,05,13,25,20.40
2012,07,05,13,26,20.50
2012,07,05,13,27,20.50
2012,07,05,13,28,20.50
2012,07,05,13,29,20.40
2012,07,05,13,30,20.40
2012,07,05,13,31,20.40
2012,07,05,13,32,20.40
2012,07,05,13,33,20.50
2012,07,05,13,34,20.50
2012,07,05,13,35,20.50
2012,07,05,13,36,20.50
2012,07,05,13,37,20.60
2012,07,05,13,38,20.60
2012,07,05,13,39,20.60
2012,07,05,13,40,20.70
2012,07,05,13,41,20.70
2012,07,05,13,42,20.70
2012,07,05,13,43,20.60
2012,07,05,13,44,20.40
2012,07,05,13,45,20.30
2012,07,05,13,46,20.20
2012,07,05,13,47,20.10
2012,07,05,13,48,20.10
2012,07,05,13,49,20.10
2012,07,05,13,50,20.10
2012,07,05,13,51,20.30
2012,07,05,13,52,20.50
2012,07,05,13,53,20.70
2012,07,05,13,54,20.90
2012,07,05,13,55,21.00
2012,07,05,13,56,21.00
2012,07,05,13,57,21.00
2012,07,05,13,58,21.10
2012,07,05,13,59,21.30
2012,07,05,14,00,21.30
2012,07,05,14,01,21.40
2012,07,05,14,02,21.50
2012,07,05,14,03,21.40
2012,07,05,14,04,21.50
2012,07,05,14,05,21.50
2012,07,05,14,06,21.50
2012,07,05,14,07,21.50
2012,07,05,14,08,21.40
2012,07,05,14,09,21.30
2012,07,05,14,10,21.20
2012,07,05,14,11,21.00
2012,07,05,14,12,21.00
2012,07,05,14,13,21.00
2012,07,05,14,14,21.10
2012,07,05,14,15,21.10
2012,07,05,14,16,21.20
2012,07,05,14,17,21.20
2012,07,05,14,18,21.30
2012,07,05,14,19,21.30
2012,07,05,14,20,21.40
2012,07,05,14,21,21.50
2012,07,05,14,22,21.50
2012,07,05,14,23,21.60
2012,07,05,14,24,21.70
2012,07,05,14,25,21.80
2012,07,05,14,26,21.80
2012,07,05,14,27,21.90
2012,07,05,14,28,21.90
2012,07,05,14,29,21.80
2012,07,05,14,30,21.80
2012,07,05,14,31,21.80
2012,07,05,14,32,21.80
2012,07,05,14,33,21.70
2012,07,05,14,34,21.70
2012,07,05,14,35,21.70
2012,07,05,14,36,21.70
2012,07,05,14,37,21.70
2012,07,05,14,38,21.70
2012,07,05,14,39,21.70
2012,07,05,14,40,21.70
2012,07,05,14,41,21.70
2012,07,05,14,42,21.70
2012,07,05,14,43,21.60
2012,07,05,14,44,21.50
2012,07,05,14,45,21.50
2012,07,05,14,46,21.50
2012,07,05,14,47,21.50
2012,07,05,14,48,21.40
2012,07,05,14,49,21.30
2012,07,05,14,50,21.20
2012,07,05,14,51,21.30
2012,07,05,14,52,21.30
2012,07,05,14,53,21.30
2012,07,05,14,54,21.40
2012,07,05,14,55,21.50
2012,07,05,14,56,21.60
2012,07,05,14,57,21.70
2012,07,05,14,58,21.70
2012,07,05,14,59,21.80
2012,07,05,15,00,21.90
2012,07,05,15,01,21.90
2012,07,05,15,02,21.90
2012,07,05,15,03,21.90
2012,07,05,15,04,21.80
2012,07,05,15,05,21.80
2012,07,05,15,06,21.70
2012,07,05,15,07,21.60
2012,07,05,15,08,21.60
2012,07,05,15,09,21.60
2012,07,05,15,10,21.70
2012,07,05,15,11,21.70
2012,07,05,15,12,21.70
2012,07,05,15,13,21.80
2012,07,05,15,14,21.90
2012,07,05,15,15,22.00
2012,07,05,15,16,22.00
2012,07,05,15,17,22.10
2012,07,05,15,18,22.10
2012,07,05,15,19,22.20
2012,07,05,15,20,22.30
2012,07,05,15,21,22.30
2012,07,05,15,22,22.30
2012,07,05,15,23,22.30
2012,07,05,15,24,22.20
2012,07,05,15,25,22.10
2012,07,05,15,26,22.00
2012,07,05,15,27,21.90
2012,07,05,15,28,21.80
2012,07,05,15,29,21.80
2012,07,05,15,30,21.80
2012,07,05,15,31,21.80
2012,07,05,15,32,21.80
2012,07,05,15,33,21.80
2012,07,05,15,34,21.80
2012,07,05,15,35,21.80
2012,07,05,15,36,21.80
2012,07,05,15,37,21.80
2012,07,05,15,38,21.70
2012,07,05,15,39,21.60
2012,07,05,15,40,21.60
2012,07,05,15,41,21.60
2012,07,05,15,42,21.50
2012,07,05,15,43,21.50
2012,07,05,15,44,21.50
2012,07,05,15,45,21.40
2012,07,05,15,46,21.40
2012,07,05,15,47,21.30
2012,07,05,15,48,21.20
2012,07,05,15,49,21.20
2012,07,05,15,50,21.10
2012,07,05,15,51,21.10
2012,07,05,15,52,21.20
2012,07,05,15,53,21.30
2012,07,05,15,54,21.40
2012,07,05,15,55,21.60
2012,07,05,15,56,21.70
2012,07,05,15,57,21.90
2012,07,05,15,58,22.00
2012,07,05,15,59,22.00
2012,07,05,16,00,22.10
2012,07,05,16,01,22.20
2012,07,05,16,02,22.30
2012,07,05,16,03,22.30
2012,07,05,16,04,22.30
2012,07,05,16,05,22.40
2012,07,05,16,06,22.50
2012,07,05,16,07,22.50
2012,07,05,16,08,22.60
2012,07,05,16,09,22.70
2012,07,05,16,10,22.70
2012,07,05,16,11,22.70
2012,07,05,16,12,22.70
2012,07,05,16,13,22.70
2012,07,05,16,14,22.70
2012,07,05,16,15,22.80
2012,07,05,16,16,22.90
2012,07,05,16,17,23.00
2012,07,05,16,18,23.00
2012,07,05,16,19,23.00
2012,07,05,16,20,23.00
2012,07,05,16,21,23.00
2012,07,05,16,22,23.00
2012,07,05,16,23,23.00
2012,07,05,16,24,23.00
2012,07,05,16,25,22.80
2012,07,05,16,26,22.70
2012,07,05,16,27,22.70
2012,07,05,16,28,22.60
2012,07,05,16,29,22.50
2012,07,05,16,30,22.50
2012,07,05,16,31,22.40
2012,07,05,16,32,22.40
2012,07,05,16,33,22.30
2012,07,05,16,34,22.30
2012,07,05,16,35,22.30
2012,07,05,16,36,22.40
2012,07,05,16,37,22.50
2012,07,05,16,38,22.40
2012,07,05,16,39,22.40
2012,07,05,16,40,22.30
2012,07,05,16,41,22.30
2012,07,05,16,42,22.40
2012,07,05,16,43,22.60
2012,07,05,16,44,22.70
2012,07,05,16,45,22.80
2012,07,05,16,46,22.80
2012,07,05,16,47,22.90
2012,07,05,16,48,22.80
2012,07,05,16,49,22.90
2012,07,05,16,50,22.90
2012,07,05,16,51,22.90
2012,07,05,16,52,23.00
2012,07,05,16,53,23.00
2012,07,05,16,54,23.10
2012,07,05,16,55,23.20
2012,07,05,16,56,23.30
2012,07,05,16,57,23.40
2012,07,05,16,58,23.40
2012,07,05,16,59,23.40
2012,07,05,17,00,23.30
2012,07,05,17,01,23.30
2012,07,05,17,02,23.20
2012,07,05,17,03,23.10
2012,07,05,17,04,23.00
2012,07,05,17,05,22.90
2012,07,05,17,06,22.90
2012,07,05,17,07,23.00
2012,07,05,17,08,23.00
2012,07,05,17,09,23.00
2012,07,05,17,10,22.90
2012,07,05,17,11,22.90
2012,07,05,17,12,22.80
2012,07,05,17,13,22.80
2012,07,05,17,14,22.70
2012,07,05,17,15,22.70
2012,07,05,17,16,22.60
2012,07,05,17,17,22.60
2012,07,05,17,18,22.70
2012,07,05,17,19,22.70
2012,07,05,17,20,22.70
2012,07,05,17,21,22.70
2012,07,05,17,22,22.60
2012,07,05,17,23,22.60
2012,07,05,17,24,22.60
2012,07,05,17,25,22.70
2012,07,05,17,26,22.80
2012,07,05,17,27,22.80
2012,07,05,17,28,22.80
2012,07,05,17,29,22.80